Date String (YYYY-MM-DD hh:mm:ss) UTC,Instrument flags,Ambient pressure (hPa),Sample flow (lpm),Bypass flow (lpm),Sample temperature (°C),Ambient temperature (°C),ASC tube jacket temperature (°C),LED temperature (°C),Box temperature (°C),Sample RH (%),Span deviation,Mass concentration (μg/m³),Mass concentration (μg/m³),Mass concentration (μg/m³)
DateTimeUTC,F1_M11,P_M11,Q1_M11,Q2_M11,T1_M11,T2_M11,T3_M11,T4_M11,T5_M11,U1_M11,ZSPAN_M11,X2_M11,X0_M11,X1_M11
2022-10-10 10:00:00,,0828.9,4.99,0.00,28.1,26.5,00.0,36.9,29.9,11.0,0000.0,0004.65,0008.88,0004.12
2022-10-10 10:01:00,,0828.9,5.01,0.00,28.1,26.5,00.0,36.9,29.9,11.2,0000.0,0004.63,0008.78,0004.12
2022-10-10 10:02:00,,0828.9,4.99,0.00,28.1,26.5,00.0,36.9,29.9,11.3,0000.0,0004.60,0008.64,0004.12
2022-10-10 10:03:00,,0828.9,5.01,0.00,28.1,26.5,00.0,36.9,29.9,11.2,0000.0,0004.59,0008.68,0004.11
2022-10-10 10:04:00,,0828.9,5.00,0.00,28.1,26.4,00.0,36.9,29.9,11.2,0000.0,0004.56,0008.68,0004.09
2022-10-10 10:05:00,,0828.9,5.00,0.00,28.1,26.4,00.0,36.9,29.8,11.1,0000.0,0004.54,0008.11,0004.08
2022-10-10 10:06:00,,0828.8,5.01,0.00,28.1,26.4,00.0,36.9,29.9,11.1,0000.0,0004.53,0007.76,0004.07
2022-10-10 10:07:00,,0828.8,4.99,0.00,28.0,26.4,00.0,36.9,29.9,10.9,0000.0,0004.50,0007.79,0004.05
2022-10-10 10:08:00,,0828.9,5.01,0.00,28.0,26.4,00.0,36.9,29.9,11.1,0000.0,0004.45,0007.79,0004.03
2022-10-10 10:09:00,,0828.9,5.01,0.00,28.0,26.4,00.0,36.9,29.9,11.4,0000.0,0004.45,0008.21,0004.02
2022-10-10 10:10:00,,0828.9,4.99,0.00,28.0,26.4,00.0,36.9,29.9,11.5,0000.0,0004.43,0008.03,0004.01
2022-10-10 10:11:00,,0828.9,5.01,0.00,28.0,26.4,00.0,36.9,29.9,11.5,0000.0,0004.36,0007.79,0004.00
2022-10-10 10:12:00,,0828.9,5.00,0.00,28.0,26.4,00.0,36.9,29.9,11.3,0000.0,0004.35,0007.79,0003.99
2022-10-10 10:13:00,,0829.0,5.00,0.00,28.0,26.4,00.0,36.9,29.9,11.5,0000.0,0004.36,0007.81,0003.98
2022-10-10 10:14:00,,0828.9,5.01,0.00,28.0,26.5,00.0,36.9,29.9,11.6,0000.0,0004.35,0007.86,0003.99
2022-10-10 10:15:00,,0828.9,5.00,0.00,28.0,26.5,00.0,36.9,29.9,11.6,0000.0,0004.30,0008.33,0003.98
2022-10-10 10:16:00,,0828.8,4.99,0.00,28.0,26.5,00.0,36.9,29.9,11.6,0000.0,0004.30,0008.66,0003.99
2022-10-10 10:17:00,,0828.8,5.01,0.00,28.0,26.5,00.0,36.9,29.9,11.5,0000.0,0004.30,0008.77,0003.98
2022-10-10 10:18:00,,0828.9,4.98,0.00,28.0,26.4,00.0,36.9,29.9,10.9,0000.0,0004.30,0008.74,0003.99
2022-10-10 10:19:00,,0828.8,5.01,0.00,28.0,26.4,00.0,36.9,29.9,10.8,0000.0,0004.31,0008.72,0004.00
2022-10-10 10:20:00,,0828.8,5.00,0.00,28.0,26.4,00.0,36.8,29.9,10.9,0000.0,0004.30,0008.21,0004.00
2022-10-10 10:21:00,,0828.8,5.00,0.00,28.0,26.5,00.0,36.8,29.9,11.2,0000.0,0004.33,0008.35,0004.00
2022-10-10 10:22:00,,0828.8,5.01,0.00,28.0,26.4,00.0,36.8,29.9,11.2,0000.0,0004.33,0008.33,0004.00
2022-10-10 10:23:00,,0828.9,4.98,0.00,28.0,26.4,00.0,36.8,29.9,11.0,0000.0,0004.35,0008.39,0004.01
2022-10-10 10:24:00,,0829.3,5.01,0.00,28.0,26.4,00.0,36.8,29.9,10.8,0000.0,0004.35,0008.45,0004.01
2022-10-10 10:25:00,,0829.3,4.99,0.00,28.0,26.4,00.0,36.8,29.8,10.7,0000.0,0004.35,0008.50,0004.01
2022-10-10 10:26:00,,0829.2,5.01,0.00,28.0,26.4,00.0,36.8,29.8,10.8,0000.0,0004.37,0007.93,0004.01
2022-10-10 10:27:00,,0829.0,4.99,0.00,28.0,26.4,00.0,36.8,29.8,10.8,0000.0,0004.34,0007.51,0004.00
2022-10-10 10:28:00,,0828.9,5.01,0.00,28.0,26.4,00.0,36.8,29.8,10.7,0000.0,0004.32,0007.32,0004.00
2022-10-10 10:29:00,,0829.0,5.00,0.00,28.0,26.4,00.0,36.8,29.8,10.7,0000.0,0004.32,0007.26,0004.00
2022-10-10 10:30:00,,0828.8,5.00,0.00,28.0,26.4,00.0,36.8,29.8,10.8,0000.0,0004.32,0007.32,0003.99
2022-10-10 10:31:00,,0828.7,5.00,0.00,28.0,26.4,00.0,36.8,29.8,10.8,0000.0,0004.33,0007.48,0003.99
2022-10-10 10:32:00,,0829.0,5.00,0.00,28.0,26.4,00.0,36.8,29.8,11.0,0000.0,0004.35,0007.47,0004.00
2022-10-10 10:33:00,,0828.8,5.01,0.00,28.0,26.3,00.0,36.8,29.8,11.1,0000.0,0004.36,0007.50,0004.01
2022-10-10 10:34:00,,0829.1,4.98,0.00,28.0,26.3,00.0,36.8,29.8,11.0,0000.0,0004.35,0007.48,0004.01
2022-10-10 10:35:00,,0829.3,5.00,0.00,28.0,26.3,00.0,36.8,29.8,11.0,0000.0,0004.36,0007.46,0004.01
2022-10-10 10:36:00,,0829.3,5.00,0.00,28.0,26.3,00.0,36.8,29.8,11.0,0000.0,0004.36,0007.45,0004.01
2022-10-10 10:37:00,,0829.3,5.01,0.00,28.0,26.3,00.0,36.8,29.8,11.1,0000.0,0004.37,0007.42,0004.02
2022-10-10 10:38:00,,0829.3,4.98,0.00,27.9,26.3,00.0,36.8,29.8,11.2,0000.0,0004.40,0007.42,0004.03
2022-10-10 10:39:00,,0829.3,5.00,0.00,28.0,26.3,00.0,36.8,29.8,11.2,0000.0,0004.40,0007.31,0004.03
2022-10-10 10:40:00,,0829.3,5.01,0.00,27.9,26.3,00.0,36.8,29.7,11.2,0000.0,0004.40,0007.19,0004.03
2022-10-10 10:41:00,,0829.2,4.99,0.00,27.9,26.3,00.0,36.8,29.7,11.2,0000.0,0004.40,0007.13,0004.05
2022-10-10 10:42:00,,0829.2,5.00,0.00,27.9,26.3,00.0,36.8,29.7,11.4,0000.0,0004.38,0006.82,0004.04
2022-10-10 10:43:00,,0829.3,5.01,0.00,27.9,26.3,00.0,36.8,29.8,11.2,0000.0,0004.34,0006.57,0004.03
2022-10-10 10:44:00,,0829.2,5.01,0.00,27.9,26.3,00.0,36.8,29.8,11.3,0000.0,0004.34,0006.90,0004.02
2022-10-10 10:45:00,,0829.2,4.99,0.00,27.9,26.3,00.0,36.8,29.8,11.4,0000.0,0004.32,0007.40,0004.02
2022-10-10 10:46:00,,0829.3,5.00,0.00,27.9,26.3,00.0,36.7,29.7,11.6,0000.0,0004.34,0007.42,0004.03
2022-10-10 10:47:00,,0829.2,5.01,0.00,27.9,26.3,00.0,36.7,29.7,11.8,0000.0,0004.36,0007.43,0004.05
2022-10-10 10:48:00,,0829.2,4.98,0.00,27.9,26.3,00.0,36.7,29.7,11.7,0000.0,0004.39,0007.45,0004.07
2022-10-10 10:49:00,,0829.3,5.01,0.00,27.9,26.3,00.0,36.7,29.8,11.6,0000.0,0004.43,0007.51,0004.09
2022-10-10 10:50:00,,0829.3,4.99,0.00,27.9,26.3,00.0,36.7,29.7,11.6,0000.0,0004.45,0007.52,0004.09
2022-10-10 10:51:00,,0829.3,5.00,0.00,27.9,26.3,00.0,36.7,29.7,11.5,0000.0,0004.46,0007.88,0004.10
2022-10-10 10:52:00,,0829.3,5.01,0.00,27.9,26.3,00.0,36.7,29.7,11.4,0000.0,0004.45,0008.02,0004.08
2022-10-10 10:53:00,,0829.2,4.99,0.00,27.9,26.3,00.0,36.7,29.7,11.3,0000.0,0004.48,0008.09,0004.07
2022-10-10 10:54:00,,0829.0,5.01,0.00,27.9,26.3,00.0,36.7,29.7,11.3,0000.0,0004.50,0008.13,0004.06
2022-10-10 10:55:00,,0828.7,5.00,0.00,27.9,26.3,00.0,36.7,29.7,11.3,0000.0,0004.48,0008.28,0004.04
2022-10-10 10:56:00,,0828.7,4.99,0.00,27.9,26.3,00.0,36.7,29.7,11.1,0000.0,0004.47,0008.00,0004.02
2022-10-10 10:57:00,,0828.8,5.01,0.00,27.9,26.3,00.0,36.7,29.7,11.1,0000.0,0004.42,0007.96,0003.98
2022-10-10 10:58:00,,0828.8,5.00,0.00,27.9,26.3,00.0,36.7,29.7,11.1,0000.0,0004.37,0007.85,0003.94
2022-10-10 10:59:00,,0828.7,4.99,0.00,27.9,26.2,00.0,36.7,29.7,11.2,0000.0,0004.34,0007.86,0003.90
